DBair |  Recent searches |  Recent views |  Contact us |  Sign In
DBair, not only an aviation database

Prince Abdul Majeed Airport, Al-Ula, Saudi Arabia

METAR

2014/09/18 13:00
OEAO 181300Z 25004KT CAVOK 39/M01 Q1011

TAF

2014/09/06 06:00
TAF OEAO 060430Z 0606/0620 32012KT 7000 FEW040 SCT100 
      BECMG 0610/0612 26014KT
Name:Prince Abdul Majeed Airport
City:Al-Ula
Country:Saudi Arabia
IATA/FAA:ULH
ICAO:OEAO
Latitude:26.6367180
Longitude:37.9080180
Altitude:2047 (in feet)
Timezone: 3 (hours offset from UTC)
DST:N (None)
Keywords: prince abdul majeed airport, al-ula, saudi arabia, ulh, oeao, 26.636718, 37.908018,

Map:

Full ICAO list |  Full IATA list |  Full airport list